Regional Weather Roundup
Issued by NWS

Home | Current Version | Previous Version | Graphics & Text | Print | Product List | Glossary On
Versions: 1 2 3 4 5 6 7 8 9 10 11 12 13 14 15 16 17 18 19 20 21 22 23 24 25 26 27 28 29 30 31 32 33 34 35 36 37 38 39 40 41 42 43 44 45 46 47 48 49 50
000
ASUS43 KMPX 180910
RWRMN
WEATHER ROUNDUP FOR MINNESOTA
NATIONAL WEATHER SERVICE TWIN CITIES/CHANHASSEN MN
300 AM CST THU JAN 18 2018


NOTE: "FAIR" INDICATES FEW OR NO CLOUDS BELOW 12,000 FEET WITH NO
SIGNIFICANT WEATHER AND/OR OBSTRUCTIONS TO VISIBILITY. N/A MEANS
CURRENT SKY AND/OR WEATHER CONDITIONS ARE NOT AVAILABLE.

MNZ060>063-068>070-181000-
   Twin Cities Metro

CITY           SKY/WX    TMP DP  RH WIND       PRES   REMARKS
TWIN CITIES    FAIR      22  17  81 SW5       29.99F WCI  16
ST PAUL        FAIR      23  16  74 SW3       30.01F
CRYSTAL        FAIR      22  13  68 S6        29.97F WCI  14
BLAINE         FAIR      23  18  80 S6        29.96F WCI  16
LAKEVILLE      FAIR      23  18  80 SW7       30.00F WCI  15
EDEN PRAIRIE   FAIR      21  15  78 SW8       29.98F WCI  11
SOUTH ST PAUL  FAIR      24  17  73 CALM      30.00S
LAKE ELMO      FAIR      25  18  74 SW8       29.99F WCI  16
$$
MNZ001>005-007-008-013>017-022>024-027-028-181000-
   Northwest Minnesota

CITY           SKY/WX    TMP DP  RH WIND       PRES   REMARKS
BEMIDJI        MOCLDY    32  22  67 SW12      29.73S WCI  23
HALLOCK        CLOUDY    32  27  80 NW10      29.73R WCI  24
ROSEAU         CLOUDY    36  28  75 W15G21    29.67R
WARROAD        CLOUDY    34  28  80 SW12G18   29.66R WCI  25
THIEF RVR FALL CLOUDY    32  25  75 W16       29.74F WCI  21
CROOKSTON      FAIR      30  25  80 W12       29.78S WCI  21
FOSSTON        FAIR      27  21  80 SW13      29.77S WCI  16
DETROIT LAKES  FAIR      30  23  74 SW9       29.83F WCI  22
MOORHEAD       FAIR      28  21  74 SW7       29.86R WCI  21
PARK RAPIDS    FAIR      28  20  71 SW14      29.77F WCI  17
MAHNOMEN       FAIR      24  19  83 S13       29.79S WCI  12
$$
MNZ006-009>011-018-025>026-181000-
   North Central Minnesota

CITY           SKY/WX    TMP DP  RH WIND       PRES   REMARKS
BAUDETTE       LGT SNOW  31  30  96 W13G23    29.64R FOG     WCI  21
FLAG ISLAND    CLOUDY    30  28  93 W13       29.61R WCI  20
INTL FALLS     HVY SNOW  28  25  88 SW9       29.65F VSB 1/4 WCI  19
WASKISH        LGT SNOW  30  28  93 W17       29.69F WCI  18
BIG FORK       CLOUDY    30  23  74 SW12      29.70F WCI  21
LONGVILLE      FAIR      28  21  74 SW6       29.77F WCI  22
GRAND RAPIDS   FAIR      31  23  72 SW9       29.75F WCI  23
CRANE LAKE     MOCLDY    19  18  93 CALM      29.70S
ORR            CLOUDY    27  19  74 SW7       29.67F WCI  19
COOK           CLOUDY    27  21  80 SW9       29.70F WCI  17
WALKER         FAIR      31  20  65 SW14G20   29.74F WCI  20
$$
MNZ012-019>021-037-181000-
   Northeast Minnesota

CITY           SKY/WX    TMP DP  RH WIND       PRES   REMARKS
DULUTH         FAIR      25  19  78 W14       29.78F WCI  13
ELY            FAIR      23  19  86 SW6       29.71F WCI  16
HIBBING        FAIR      19  16  88 S3        29.74F
EVELETH        FAIR      20  15  81 SW3       29.75F
DULUTH HARBOR  FAIR      27  21  80 SW10      29.83F WCI  17
TWO HARBORS    FAIR      21  16  79 SW5       29.76F WCI  15
SILVER BAY     FAIR      19  16  86 CALM      29.75F
GRAND MARAIS     N/A     25  17  72 NW5       29.77F WCI  19
G MARAIS ARPRT FAIR      16  12  86 SW3       29.71F
$$
MNZ029>031-032-039>041-046>048-054>057-064-181000-
   West Central Minnesota

CITY           SKY/WX    TMP DP  RH WIND       PRES   REMARKS
FERGUS FALLS   FAIR      21  19  93 S8        29.87F WCI  12
WHEATON        CLOUDY    34  21  60 SW17      29.91F WCI  23
MORRIS         CLOUDY    28  21  74 SW13      29.90F WCI  18
ALEXANDRIA     FAIR      24  19  81 SW7       29.89F WCI  16
ELBOW LAKE     FAIR      22  19  89 S9        29.89F WCI  11
WADENA         FAIR      28  21  74 W13       29.82F WCI  18
GLENWOOD       FAIR      27  21  80 SW14      29.90F WCI  15
APPLETON       CLOUDY    28  21  74 SW9       29.95F WCI  20
BENSON         CLOUDY    19  16  86 CALM      29.96F
ORTONVILLE     CLOUDY    30  19  64 W3        29.95S
MADISON        CLOUDY    34  25  69 W13G18    29.97S WCI  25
WILLMAR        FAIR      18  16  93 SW3       29.98F
$$
MNZ033>034-036-042>043-049>051-058-059-181000-
   Central Minnesota

CITY           SKY/WX    TMP DP  RH WIND       PRES   REMARKS
ST CLOUD       FAIR      23  18  81 S8        29.92F WCI  14
SAUK CENTRE      N/A     24  20  83 S3        29.90F
PAYNESVILLE    FAIR      27  22  82 W9        29.94F WCI  18
AITKIN         FAIR      28  19  69 SW10G17   29.80F WCI  19
PINE RIVER     FAIR      28  19  69 SW6       29.83F WCI  22
BRAINERD       FAIR      28  20  71 S13       29.82F WCI  17
STAPLES        FAIR      28  21  74 SW9       29.82F WCI  20
LONG PRAIRIE   FAIR      27  21  80 S9        29.89F WCI  17
LITTLE FALLS   FAIR      28  18  64 SW5       29.89  WCI  23
LITCHFIELD     FAIR      21  19  93 SW3       29.96F
BUFFALO        FAIR      21  16  81 S3        29.97F
MAPLE LAKE     FAIR      24  19  84 MISG      29.96F
HUTCHINSON     FAIR      22  18  85 SW7       29.98F WCI  13
$$
MNZ037-044-045-052-053-181000-
   East Central Minnesota

CITY           SKY/WX    TMP DP  RH WIND       PRES   REMARKS
PRINCETON      FAIR      25  19  80 S8        29.92F WCI  16
MORA           FAIR      25  19  80 SW7       29.91F WCI  17
CAMBRIDGE      FAIR      27  18  69 S7        29.93F WCI  19
RUSH CITY      FAIR      25  19  77 SW7       29.91F WCI  17
MOOSE LAKE     FAIR      19  16  86 SW3       29.82F
HINCKLEY       FAIR      25  19  80 S7        29.88F WCI  17
CLOQUET        FAIR      25  18  74 SW6       29.80F WCI  18
MCGREGOR       FAIR      28  23  80 S9        29.79F WCI  20
$$
MNZ071>073-080-081-089-090-097-098-181000-
   Southwest Minnesota

CITY           SKY/WX    TMP DP  RH WIND       PRES   REMARKS
MONTEVIDEO     CLOUDY    25  19  80 W7        29.97F WCI  17
GRANITE FALLS  CLOUDY    21  17  86 S6        29.99F WCI  13
CANBY          MOCLDY    32  24  70 SW16G23   29.99S WCI  22
MARSHALL       CLOUDY    28  21  75 W13       29.98F WCI  17
REDWOOD FALLS  CLOUDY    19  16  88 SW8       29.99F WCI   9
OLIVIA         CLOUDY    19  18  93 S8        29.98F WCI   9
PIPESTONE      CLOUDY    16  12  86 W5        30.02F WCI   9
WINDOM         CLOUDY    21   7  53 SW13      30.02F WCI   9
WORTHINGTON    CLOUDY    19  15  84 SW9       30.04F WCI   8
JACKSON        CLOUDY    23  18  80 SW14G20   30.03F WCI  11
SLAYTON        CLOUDY    26  20  80 SW17      30.00F WCI  12
$$
MNZ065>067-074>077-082>085-091>093-181000-
   South Central Minnesota

CITY           SKY/WX    TMP DP  RH WIND       PRES   REMARKS
MANKATO        FAIR      21  16  81 S9        30.03F WCI  11
NEW ULM        CLOUDY    21  16  79 SW7       30.00F WCI  13
ST JAMES       CLOUDY    19  16  86 SW9       30.03F WCI   9
FAIRMONT       CLOUDY    24  18  77 W16       30.04F WCI  11
GLENCOE        FAIR      23  18  80 SW5       29.98F WCI  17
FARIBAULT      FAIR      18  14  86 S5        30.03F WCI  11
OWATONNA       FAIR      19  16  86 SW12      30.02F WCI   7
WASECA         FAIR      18  14  86 SW8       30.05F WCI   7
ALBERT LEA     FAIR      21  14  73 SW6       30.05F WCI  14
$$
MNZ078>079-086>088-094>096-181000-
   Southeast Minnesota

CITY           SKY/WX    TMP DP  RH WIND       PRES   REMARKS
ROCHESTER      FAIR      17  13  84 SW9       30.03R WCI   6
RED WING       FAIR      18  12  79 CALM      30.02S
STANTON        FAIR      22  16  76 SW12      30.00F WCI  10
DODGE CENTER   FAIR      18  12  79 SW12      30.02F WCI   5
WINONA         FAIR      23  16  74 W6        30.05F WCI  16
AUSTIN         FAIR      16  10  79 SW7       30.05F WCI   6
PRESTON        FAIR      18  12  77 SW8       30.05S WCI   8
$$
ABBREVIATIONS USED IN REMARKS
   TC - TEMPERATURES IN CELSIUS
  WCI - WIND CHILL INDEX
   HX - HEAT INDEX
  VSB - VISIBILITY
$$




USA.gov is the U.S. government's official web portal to all federal, state and local government web resources and services.